Location: Baia de Cri?
(46.1667°N, 22.7167°E)
Time: 21:57:37
(UTC+00:00)

DMSP B5D1-3 - Pass Details

Date: 15 January 2026
Orbit: 758 x 772 km, 98.5° (Epoch: 10 February)

Event Time Altitude Azimuth Distance (km) Brightness Sun altitude
Rises 04:37:01 0° 174° (S) 3,213 8.0 -15.3°
Reaches altitude 10° 04:39:20 10° 178° (S) 2,290 7.2 -14.9°
Maximum altitude 04:44:20 62° 259° (WSW) 859 4.5 -14.1°
Drops below altitude 10° 04:49:21 10° 340° (NNW) 2,301 6.6 -13.3°
Sets 04:51:41 0° 344° (NNW) 3,230 7.4 -12.9°
